Lid_Strength_Index
11 13 14 12 12 11 10 12 13 11 8 10 10 11 10 8 8 8 7 7 6 6 4 3 2 2 2 2 2 1 1 1 1 2 2 2 2 2 2 2 1 1 0 0
12 14 11 10 10 11 12 13 14 11 9 10 10 11 9 9 8 8 7 7 6 6 5 4 3 2 2 2 2 1 1 1 1 1 1 1 2 2 1 2 1 0 0 0
11 10 8 9 10 11 11 13 14 13 10 9 11 13 11 9 8 7 7 6 6 6 5 4 4 3 2 2 2 2 1 1 1 1 2 1 1 2 2 2 2 0 -0 0
11 8 8 9 9 9 12 9 11 11 11 14 11 18 13 10 10 8 7 7 6 6 5 4 4 3 3 2 2 1 2 1 1 1 1 2 2 3 2 2 2 0 0 0
11 11 10 10 9 8 10 8 10 11 12 13 12 16 14 11 12 10 8 7 6 5 5 5 4 3 2 2 2 1 1 1 1 1 1 1 2 2 2 2 2 2 0 0
10 8 9 9 7 7 7 9 10 13 12 15 13 14 14 14 11 9 8 7 6 5 5 4 3 3 3 2 2 2 2 1 1 1 1 1 2 2 3 3 3 3 1 0
11 11 10 8 10 8 8 13 16 17 17 17 14 14 12 10 8 8 8 7 6 5 5 4 4 4 3 3 2 2 2 2 1 1 1 1 1 2 2 3 3 3 2 1
16 15 12 9 10 10 10 11 16 20 19 16 15 17 12 8 7 6 6 6 5 5 5 4 4 4 3 3 2 2 2 2 2 1 1 1 1 1 1 2 3 3 2 1
16 15 10 10 10 9 11 12 10 15 16 18 16 14 11 10 9 7 7 6 6 5 5 4 4 3 3 3 2 2 2 2 2 2 1 1 1 1 1 2 2 2 2 0
13 17 11 11 10 9 10 10 14 16 18 19 17 16 13 12 12 8 8 7 6 5 5 4 4 3 3 3 2 2 2 2 2 1 1 1 1 1 1 1 2 2 2 1
13 14 13 11 13 14 12 11 14 13 15 16 18 15 13 11 10 10 8 6 6 5 5 4 4 3 3 2 2 2 2 2 2 2 1 1 1 1 1 1 2 1 2 2
11 14 16 14 11 11 12 13 11 14 16 17 16 13 9 10 10 10 10 7 5 5 4 4 4 3 3 3 3 2 2 2 2 2 1 1 1 1 1 1 1 1 1 1
12 14 17 15 14 13 15 13 14 14 15 16 16 13 9 10 10 10 10 9 6 5 5 4 4 4 3 3 3 3 2 2 2 1 2 2 2 2 2 1 1 1 2 2
8 14 16 18 16 15 17 15 15 15 17 13 14 13 11 10 10 10 10 9 7 5 5 5 4 4 3 3 3 3 3 2 2 2 2 2 2 2 1 1 1 1 1 1
10 15 13 14 14 14 16 16 15 16 14 16 12 14 11 11 10 10 8 7 7 5 5 5 5 4 3 3 3 3 2 2 2 2 2 2 2 1 1 1 1 1 1 1
11 13 14 15 13 14 16 15 14 13 12 12 13 13 10 8 8 8 7 7 7 5 5 5 4 4 3 3 3 3 3 2 2 2 2 2 2 2 2 1 1 1 1 1
12 13 14 18 14 15 16 13 11 11 11 11 13 11 8 10 9 9 8 7 6 5 5 5 4 4 3 3 3 3 3 2 2 2 2 2 2 2 2 2 1 2 2 1
12 13 13 18 16 19 13 11 11 11 11 10 10 10 9 9 8 7 6 7 7 6 6 5 4 3 3 3 3 3 3 2 2 3 2 2 2 2 2 2 2 2 1 2
9 12 15 17 18 14 12 12 13 13 13 12 11 11 9 8 7 9 10 7 6 6 5 5 5 5 4 4 3 3 3 2 3 3 2 2 2 2 2 2 2 2 2 2
9 10 14 16 19 21 14 12 11 10 15 12 12 13 11 8 12 13 11 11 8 8 4 4 4 4 5 5 3 3 4 3 3 3 2 2 2 2 2 2 2 2 1 2
14 13 16 17 17 15 12 13 10 16 16 12 12 13 13 12 11 10 11 11 10 7 8 6 4 4 4 3 3 4 4 3 3 3 2 2 2 2 2 2 2 2 2 2
14 15 16 16 17 19 12 13 14 13 11 12 13 12 13 12 10 11 11 12 11 10 7 8 7 5 5 3 3 4 4 3 2 2 2 2 2 2 2 2 2 2 2 2
15 13 14 16 16 12 12 13 12 11 13 12 13 12 12 12 11 11 11 11 11 11 9 7 7 8 5 4 3 4 3 3 4 3 3 3 3 2 2 2 2 2 2 3
11 10 13 14 13 13 12 12 11 11 12 11 10 11 11 12 11 11 11 11 11 10 10 6 7 7 7 5 4 3 2 2 3 3 3 3 3 3 2 2 2 2 3 3
11 11 13 14 13 13 12 11 11 11 11 11 10 10 10 11 11 11 11 10 11 10 9 8 6 6 6 5 4 4 2 2 3 3 3 4 3 4 3 3 4 2 2 3
10 12 13 15 12 12 13 11 10 11 11 10 10 10 9 10 11 10 12 11 10 10 10 9 9 6 4 5 4 2 2 2 3 4 3 3 3 3 4 5 8 16 16 17